Showing default

BALKAN-1, 62611

Orbit data source: Space-Track

BALKAN-1, 62611 is a payload satellite owned by Endurosat (BG) in SSO that was launched on Tue, 14 Jan 2025 UTC via an FALCON 9 launch vehicle from the Air Force Western Test Range (AFWTR). Payload-class satellites include a variety of spacecraft equipped with specific instruments for various scientific and technological missions. These include communications satellites like Starlink; space stations such as the ISS; scientific satellites like the Hubble; Earth observation satellites from companies like Planet Labs, Umbra, and HawkEye 360; GPS; miniature CubeSats for education and research; and military/defense satellites.

Loading next visibility...
Identifier
62611, 2025-009C
Orbit
SSO
Country
Flag of BGBG / BGR
Related business
Manufacturer
Endurosat
Mission
Operational Commercial Imaging
Bus & Motor
CUBESAT 16U, Unknown motor
Mass
32 kg wet, 32 kg dry
Launch date (UTC)
2025-01-14 (9 months ago)
Launch vehicle
FALCON 9
Launch site
Air Force Western Test Range (AFWTR)
Object type
Payload
Rocket body
Debris
Shape & HBR
Box + 2 Pan, 0.7 m
Radar Cross Section
0.124 m², Medium (>0.1 m² and < 1m²)

Expand to show TLE details & history
Last TLE update: 18 hours ago

TLE from 18 hours ago
0 BALKAN-1
1 62611U 25009C   25298.21177904  .00010958  00000-0  50009-3 0  9999
2 62611  97.4152  15.7795 0009154  82.5640 277.6635 15.20746068 42993
Epoch: 2025-10-25T05:04Z
TLE epoch observation values (Epoch: 2025-10-25T05:04:57.709Z)
Latitude
-0.00003°
Longitude
-94.30653°
Altitude
505.845 km
Speed
7.612 km/s
True Right ascension
01h 03m 07s
True Declination
0° 00' 00"
Sunlit
Object was in full shadow at epoch
Visualization orbit readout
Latitude
Unknown
Longitude
Unknown
Altitude
Unknown
Speed
Unknown
Apparent Right ascension
Unknown
Apparent Declination
Unknown
Sunlit
N/A
Visualization observer readout
Local Sidereal Time
18:06:22
Azimuth
Unknown
Elevation
Unknown
Doppler factor
Unknown
Orbital elements
Apogee altitude
506.851 km
Perigee altitude
494.257 km
Semi-major axis
6,878.691 km
Eccentricity
0.00092
Inclination
97.4152°
RAAN
15.7795°
Arg. of periapsis
82.564°
True anomaly
277.55952°
Mean anomaly
277.6635°
Eccentric anomaly
277.61151°
Mean motion
3.80438 °/min
Orbital period
94.63 mins
BSTAR
0.00050009
Loading maneuver chart data...
Computing Atmospheric mass density...
Loading historical data...
Loading historical data...
Loading historical data...
Loading historical data...
Loading historical data...
Loading historical data...
Loading historical data...

Documentation

Showing up to 5 results
|